�N����,����,����,����,����,�C��,���x,�~����,���Ǝ���,�S�V����,�ő�u�ԕ���,,,
,,,,,,,,,,����,����,����,�N��
yyyy/mm/dd,hh:mm:ss,(16),16����,m/s,��,%,mm,min,KW/�u,(16),16����,m/s,Time
2011/4/1,1:00:00,293,���k��,1.8,0.1,92.8,0,0,0,315,�k��,3.2,52
2011/4/1,2:00:00,270,��,1.4,-0.4,93.6,0,0,0,270,��,2.8,0
2011/4/1,3:00:00,248,���쐼,1.9,-0.6,95.1,0,0,0.01,293,���k��,3.8,37
2011/4/1,4:00:00,90,��,0.3,-0.7,95.9,0,0,0.01,248,���쐼,2.6,2
2011/4/1,5:00:00,180,��,1.3,-0.8,96.5,0,0,0.01,180,��,2.4,51
2011/4/1,6:00:00,68,���k��,0.4,-0.9,97.1,0,0,0.01,270,��,2.3,40
2011/4/1,7:00:00,45,�k��,1,-0.6,96.7,0,0,0.05,45,�k��,1.7,43
2011/4/1,8:00:00,360,�k,0.9,0.1,95,0,18,0.11,23,�k�k��,2.1,58
2011/4/1,9:00:00,113,���쓌,1.2,0.9,91.1,0,60,0.18,135,�쓌,2.6,56
2011/4/1,10:00:00,90,��,1.7,1.4,89.1,0,60,0.29,90,��,3.4,39
2011/4/1,11:00:00,113,���쓌,1.9,2.1,85.1,0,60,0.4,113,���쓌,3.8,41
2011/4/1,12:00:00,90,��,2.7,1.9,81.8,0,60,0.51,113,���쓌,5,23
2011/4/1,13:00:00,113,���쓌,3.1,3.3,81.7,0,60,0.66,90,��,5,15
2011/4/1,14:00:00,113,���쓌,3,2.3,80.7,0,60,0.75,113,���쓌,4.7,0
2011/4/1,15:00:00,90,��,1.9,3,85.1,0,60,0.46,68,���k��,4.7,6
2011/4/1,16:00:00,113,���쓌,2.9,3.5,81.5,0,59,0.34,135,�쓌,4.2,57
2011/4/1,17:00:00,203,��쐼,4.6,8.1,49.8,0,60,0.23,158,��쓌,8.3,35
2011/4/1,18:00:00,180,��,5,4,81.1,0,6,0.05,158,��쓌,9.1,24
2011/4/1,19:00:00,180,��,5.6,3.2,83.8,0,0,0,180,��,10.7,10
2011/4/1,20:00:00,158,��쓌,3.1,2.9,84.6,0,0,0,203,��쐼,10.8,14
2011/4/1,21:00:00,158,��쓌,5.2,2.8,91.2,0,0,0,158,��쓌,11.4,45
2011/4/1,22:00:00,158,��쓌,6.5,2.3,93.5,0,0,0,180,��,12.3,24
2011/4/1,23:00:00,158,��쓌,5.5,2.7,93.1,0,0,0,158,��쓌,11.4,2
2011/4/1,0:00:00,135,�쓌,2.1,3.2,83.5,0,0,0,135,�쓌,8.7,21
2011/4/2,1:00:00,360,�k,2.5,1.4,91.1,0,0,0,23,�k�k��,3.9,42
2011/4/2,2:00:00,225,�쐼,8.9,6.7,61.3,0,0,0,225,�쐼,14.1,43
2011/4/2,3:00:00,180,��,4.4,4.8,76,0,0,0,225,�쐼,12.4,10
2011/4/2,4:00:00,225,�쐼,4.2,6.2,75.5,0,0,0,225,�쐼,7.8,52
2011/4/2,5:00:00,270,��,6.1,4.6,69.8,0,0,0,248,���쐼,11.5,37
2011/4/2,6:00:00,270,��,5.1,3.6,68.2,0,0,0.04,270,��,10.4,39
2011/4/2,7:00:00,270,��,9,5.2,38.8,0,60,0.24,225,�쐼,17.6,35
2011/4/2,8:00:00,270,��,9.3,5.6,42.8,0,60,0.47,270,��,14.3,50
2011/4/2,9:00:00,248,���쐼,8.6,5.5,43.4,0,60,0.7,270,��,18.4,29
2011/4/2,10:00:00,270,��,10,5.5,42.3,0,60,0.85,270,��,15.5,21
2011/4/2,11:00:00,248,���쐼,8.5,6.1,41.7,0,60,0.9,270,��,15.4,18
2011/4/2,12:00:00,248,���쐼,9.5,5.6,35.8,0,60,0.87,270,��,13.8,58
2011/4/2,13:00:00,270,��,10.4,6.2,35.2,0,60,0.78,270,��,16.8,47
2011/4/2,14:00:00,248,���쐼,11.6,5.3,33.8,0,60,0.8,270,��,18.1,31
2011/4/2,15:00:00,270,��,11.9,5.8,29.2,0,60,0.66,248,���쐼,17.2,26
2011/4/2,16:00:00,270,��,9.2,4.5,32.8,0,60,0.47,270,��,17,13
2011/4/2,17:00:00,270,��,8.4,2,56.6,0,60,0.25,270,��,15.4,42
2011/4/2,18:00:00,315,�k��,1.7,-0.2,68.9,0,5,0.05,270,��,11.9,0
2011/4/2,19:00:00,338,�k�k��,1.9,-1.2,73,0,0,0,270,��,5.7,35
2011/4/2,20:00:00,203,��쐼,3.2,-0.9,71.7,0,0,0,225,�쐼,4.3,56
2011/4/2,21:00:00,248,���쐼,4.5,-0.5,64.9,0,0,0,225,�쐼,7.8,49
2011/4/2,22:00:00,225,�쐼,5.9,-0.6,64.7,0,0,0.01,225,�쐼,7.6,6
2011/4/2,23:00:00,248,���쐼,3.2,-0.2,56.3,0,0,0.01,225,�쐼,8.1,1
2011/4/2,0:00:00,248,���쐼,4.7,-0.2,55.9,0,0,0.01,248,���쐼,8.5,12
2011/4/3,1:00:00,248,���쐼,3.8,-0.6,57,0,0,0.01,248,���쐼,7.3,33
2011/4/3,2:00:00,270,��,0.9,-2.5,66.6,0,0,0.01,225,�쐼,5,0
2011/4/3,3:00:00,293,���k��,1.7,-4.6,79.8,0,0,0.01,293,���k��,3,49
2011/4/3,4:00:00,293,���k��,1.9,-7.1,87.7,0,0,0.01,293,���k��,2.8,52
2011/4/3,5:00:00,248,���쐼,1,-7.4,87.7,0,0,0.01,248,���쐼,2.8,45
2011/4/3,6:00:00,270,��,1.6,-4.5,84.1,0,6,0.06,270,��,3.5,50
2011/4/3,7:00:00,270,��,1.4,1.4,51.6,0,60,0.29,293,���k��,3,15
2011/4/3,8:00:00,270,��,3.8,3.8,38.3,0,60,0.48,270,��,7.7,48
2011/4/3,9:00:00,270,��,4.8,5.1,33.8,0,60,0.63,293,���k��,9.8,14
2011/4/3,10:00:00,338,�k�k��,4.4,5.8,33.6,0,60,0.75,293,���k��,9.9,11
2011/4/3,11:00:00,315,�k��,5.1,6.6,38.1,0,60,0.85,315,�k��,10.5,30
2011/4/3,12:00:00,315,�k��,4.7,6.4,37.1,0,60,0.9,293,���k��,8.8,30
2011/4/3,13:00:00,315,�k��,4.9,7.9,33.6,0,60,0.88,315,�k��,9.8,17
2011/4/3,14:00:00,315,�k��,4.2,7.4,33.2,0,60,0.78,293,���k��,8.4,44
2011/4/3,15:00:00,180,��,3.7,5.2,41.3,0,60,0.57,293,���k��,6.9,8
2011/4/3,16:00:00,180,��,3.5,4.7,46.4,0,60,0.22,158,��쓌,6.3,33
2011/4/3,17:00:00,158,��쓌,2.6,4.3,46.4,0,14,0.12,180,��,5.2,8
2011/4/3,18:00:00,338,�k�k��,1.9,3.8,48.1,0,0,0.02,338,�k�k��,4.8,34
2011/4/3,19:00:00,338,�k�k��,2.5,3.1,50.2,0,0,0,360,�k,4.8,59
2011/4/3,20:00:00,45,�k��,4.9,1.8,69.4,0,0,0,45,�k��,7.8,49
2011/4/3,21:00:00,68,���k��,4.7,1.4,70.9,0,0,0,68,���k��,7.2,31
2011/4/3,22:00:00,90,��,3.4,0.4,81.9,0,0,0,90,��,5.8,55
2011/4/3,23:00:00,113,���쓌,1.9,-0.7,93.6,0,0,0,90,��,5.3,5
2011/4/3,0:00:00,158,��쓌,0.7,-1,95.1,0,0,0,113,���쓌,3.3,6
2011/4/4,1:00:00,135,�É�,0,-1.1,96.4,1.5,0,0,135,�쓌,1.6,16
2011/4/4,2:00:00,45,�É�,0,-1.3,96.6,2.5,0,0.01,23,�É�,0,0
2011/4/4,3:00:00,23,�k�k��,1.5,-2,95.8,1.5,0,0.01,360,�k,4.3,39
2011/4/4,4:00:00,360,�É�,0,-2,96.5,0,0,0.01,23,�k�k��,2.7,20
2011/4/4,5:00:00,23,�k�k��,4.5,-3.2,95.4,0.5,0,0.01,45,�k��,6.5,47
2011/4/4,6:00:00,315,�k��,1.4,-2.5,82.8,0,0,0.03,23,�k�k��,5.5,1
2011/4/4,7:00:00,360,�k,3.3,-1.2,60,0,44,0.22,360,�k,4.8,58
2011/4/4,8:00:00,360,�k,3.2,-0.6,46.7,0,60,0.5,360,�k,6.1,15
2011/4/4,9:00:00,293,���k��,3.1,-0.3,43.8,0,60,0.63,293,���k��,5.9,43
2011/4/4,10:00:00,293,���k��,2,0.8,39.9,0,60,0.81,293,���k��,5.7,23
2011/4/4,11:00:00,315,�k��,2.5,2,32.3,0,60,0.91,338,�k�k��,5.9,41
2011/4/4,12:00:00,293,���k��,3.3,2.5,29.7,0,60,0.95,270,��,5.4,28
2011/4/4,13:00:00,135,�쓌,3.9,2.6,44.3,0,60,0.92,158,��쓌,6.9,58
2011/4/4,14:00:00,180,��,6,1.8,55.3,0,60,0.8,158,��쓌,10.5,33
2011/4/4,15:00:00,180,��,5.4,1.7,57.3,0,60,0.67,203,��쐼,10.4,13
2011/4/4,16:00:00,180,��,4.7,1.7,65.3,0,60,0.48,180,��,9.3,37
2011/4/4,17:00:00,180,��,3.5,1.2,72.4,0,60,0.25,180,��,7.2,33
2011/4/4,18:00:00,180,��,2.6,-0.5,83.9,0,6,0.06,180,��,6.4,21
2011/4/4,19:00:00,338,�k�k��,0.9,-2.1,86.3,0,0,0,180,��,4.5,25
2011/4/4,20:00:00,293,���k��,1.1,-4.7,93.8,0,0,0,270,��,2.1,53
2011/4/4,21:00:00,248,���쐼,1.2,-3.6,91.7,0,0,0,293,���k��,2.6,15
2011/4/4,22:00:00,248,���쐼,1.4,-6.3,91.4,0,0,0.01,293,���k��,2.6,29
2011/4/4,23:00:00,270,��,1.4,-5.9,94.4,0,0,0.01,293,���k��,3,25
2011/4/4,0:00:00,270,��,2.9,-5.5,93.6,0,0,0.01,270,��,3.6,59
2011/4/5,1:00:00,270,��,2.8,-5.9,93.1,0,0,0.01,270,��,3.7,2
2011/4/5,2:00:00,270,��,2.8,-6.5,92.7,0,0,0.01,270,��,3.8,51
2011/4/5,3:00:00,270,��,2.3,-6,91.4,0,0,0.01,270,��,3,49
2011/4/5,4:00:00,270,��,1,-6.5,89.3,0,0,0.01,270,��,3.8,32
2011/4/5,5:00:00,270,��,1,-5.4,88.3,0,0,0.01,293,���k��,4.7,42
2011/4/5,6:00:00,270,��,2.1,-3.4,83.5,0,0,0.05,270,��,3.4,11
2011/4/5,7:00:00,270,��,2.6,0.6,67.6,0,59,0.24,293,���k��,4.5,13
2011/4/5,8:00:00,315,�k��,1.8,5.2,53.9,0,60,0.45,270,��,5,24
2011/4/5,9:00:00,270,��,2.2,9,35.5,0,60,0.63,270,��,3.8,21
2011/4/5,10:00:00,248,���쐼,1.7,12,32.2,0,60,0.77,270,��,4,46
2011/4/5,11:00:00,158,�É�,0,12.1,29.5,0,60,0.87,293,���k��,5.2,2
2011/4/5,12:00:00,203,�É�,0,13.8,25.3,0,60,0.9,180,�É�,0,0
2011/4/5,13:00:00,158,��쓌,1.3,14.5,24.4,0,60,0.87,158,��쓌,5.7,57
2011/4/5,14:00:00,158,��쓌,5.8,14,24.7,0,60,0.77,158,��쓌,8.1,38
2011/4/5,15:00:00,315,�k��,4.5,17.5,19.8,0,60,0.63,338,�k�k��,9.5,49
2011/4/5,16:00:00,315,�k��,4.1,16.5,25.2,0,60,0.45,315,�k��,9.2,27
2011/4/5,17:00:00,315,�k��,4.5,14.6,28.2,0,60,0.23,315,�k��,9.6,29
2011/4/5,18:00:00,315,�k��,4.2,12.3,32.2,0,1,0.05,338,�k�k��,9.4,5
2011/4/5,19:00:00,315,�k��,4,11.5,36.7,0,0,0,315,�k��,8.6,28
2011/4/5,20:00:00,293,���k��,3.9,10.1,40.5,0,0,0,315,�k��,6.7,27
2011/4/5,21:00:00,270,��,3,6.6,54.4,0,0,0,293,���k��,7.3,9
2011/4/5,22:00:00,293,���k��,3,5.1,56.5,0,0,0,293,���k��,4.5,53
2011/4/5,23:00:00,293,���k��,1,2.7,65.4,0,0,0,270,��,5.2,10
2011/4/5,0:00:00,270,��,2.5,-2.5,84.4,0,0,0,270,��,2.9,52
2011/4/6,1:00:00,270,��,2.7,-0.4,80,0,0,0,293,���k��,4.2,33
2011/4/6,2:00:00,293,���k��,2.1,-1.7,85.8,0,0,0,270,��,3.8,24
2011/4/6,3:00:00,360,�k,1.1,-2.5,89.2,0,0,0,270,��,3.5,15
2011/4/6,4:00:00,293,���k��,2,-3.6,92.1,0,0,0.01,293,���k��,2.6,55
2011/4/6,5:00:00,270,��,2.9,-2.9,90.3,0,0,0.01,270,��,3.8,59
2011/4/6,6:00:00,270,��,2,-1.5,89.9,0,6,0.06,270,��,3.6,0
2011/4/6,7:00:00,293,���k��,1.3,3.9,68.8,0,60,0.25,270,��,2.6,15
2011/4/6,8:00:00,113,���쓌,0.6,10.2,49,0,60,0.47,248,���쐼,1.8,26
2011/4/6,9:00:00,135,�쓌,2.7,8.2,51.1,0,60,0.65,158,��쓌,4.3,46
2011/4/6,10:00:00,158,��쓌,2.4,8.6,48.2,0,60,0.79,113,���쓌,4.9,4
2011/4/6,11:00:00,158,��쓌,2,12.5,36.3,0,60,0.89,135,�쓌,4.4,20
2011/4/6,12:00:00,135,�쓌,3.9,16.1,29.5,0,60,0.94,135,�쓌,6,52
2011/4/6,13:00:00,248,���쐼,7.9,20,13.4,0,60,0.91,248,���쐼,13.7,50
2011/4/6,14:00:00,248,���쐼,7.1,19.8,15.9,0,60,0.8,248,���쐼,11.8,10
2011/4/6,15:00:00,248,���쐼,7.1,18.7,18.9,0,60,0.65,248,���쐼,11,28
2011/4/6,16:00:00,248,���쐼,5.4,17.5,20.1,0,60,0.46,225,�쐼,11.8,8
2011/4/6,17:00:00,248,���쐼,5,15.3,24.1,0,60,0.24,270,��,8,53
2011/4/6,18:00:00,225,�쐼,5.2,12.5,31.1,0,3,0.05,248,���쐼,7.2,45
2011/4/6,19:00:00,248,���쐼,4.9,10.8,40.2,0,0,0,225,�쐼,7.9,51
2011/4/6,20:00:00,225,�쐼,2.6,8.4,45.7,0,0,0,225,�쐼,7.1,4
2011/4/6,21:00:00,248,���쐼,2.9,9.5,41.1,0,0,0,248,���쐼,7.2,41
2011/4/6,22:00:00,270,��,3.4,6.9,46.4,0,0,0,225,�쐼,6.8,0
2011/4/6,23:00:00,248,���쐼,2.5,1.9,68.9,0,0,0,270,��,3.7,0
2011/4/6,0:00:00,248,���쐼,2.8,-1.8,81.5,0,0,0,248,���쐼,3.7,54
2011/4/7,1:00:00,270,��,1.9,-3.1,85.9,0,0,0,270,��,3.6,7
2011/4/7,2:00:00,270,��,2.3,-3.3,79.6,0,0,0,270,��,3.5,46
2011/4/7,3:00:00,270,��,3,-2.5,83.8,0,0,0.01,270,��,4.3,59
2011/4/7,4:00:00,293,���k��,1.3,-2.7,76.7,0,0,0.01,270,��,4,0
2011/4/7,5:00:00,293,���k��,1.6,-3,80.4,0,0,0.01,248,���쐼,4.6,24
2011/4/7,6:00:00,270,��,1.3,-1.7,84.6,0,3,0.07,293,���k��,2.8,32
2011/4/7,7:00:00,315,�k��,0.3,1.7,76.4,0,60,0.16,270,��,3.5,17
2011/4/7,8:00:00,135,�쓌,1.4,10.3,38.7,0,60,0.38,158,��쓌,3.5,44
2011/4/7,9:00:00,225,�쐼,5.2,14.3,22.4,0,60,0.5,225,�쐼,8.1,52
2011/4/7,10:00:00,203,��쐼,1.9,12.6,23.4,0,60,0.27,225,�쐼,7.9,16
2011/4/7,11:00:00,135,�쓌,3.5,11.3,31.2,0,60,0.31,135,�쓌,5.9,37
2011/4/7,12:00:00,158,��쓌,3.3,9.2,40.5,0,60,0.22,158,��쓌,5.8,42
2011/4/7,13:00:00,203,��쐼,3.7,14.3,23.7,0,60,0.35,180,��,8.8,44
2011/4/7,14:00:00,248,���쐼,8.3,15.9,27.2,0,60,0.42,225,�쐼,13.5,58
2011/4/7,15:00:00,225,�쐼,9.1,14.8,33.1,0,60,0.64,225,�쐼,16.9,3
2011/4/7,16:00:00,248,���쐼,6.1,14,36.4,0,60,0.25,248,���쐼,15.2,18
2011/4/7,17:00:00,180,��,3.1,13.3,41.4,0,46,0.14,225,�쐼,12.4,2
2011/4/7,18:00:00,158,��쓌,3.3,9.6,51.5,0,0,0.03,135,�쓌,6.2,38
2011/4/7,19:00:00,180,��,5.2,9,58.4,0,0,0,180,��,8.5,52
2011/4/7,20:00:00,180,��,5.4,8.9,68.4,0,0,0,158,��쓌,8.4,9
2011/4/7,21:00:00,180,��,3,10.3,66.8,0,0,0,203,��쐼,8.4,13
2011/4/7,22:00:00,180,��,2.9,10.7,64.3,0,0,0,180,��,6.3,50
2011/4/7,23:00:00,180,��,2.9,9.7,72.7,0,0,0,180,��,6.9,35
2011/4/7,0:00:00,180,��,5.4,8.5,78.5,0,0,0,180,��,8.9,53
2011/4/8,1:00:00,158,��쓌,5.4,8.6,77.4,0,0,0,180,��,11,2
2011/4/8,2:00:00,135,�쓌,5.6,8.9,79,0,0,0,135,�쓌,9.6,52
2011/4/8,3:00:00,113,���쓌,4.2,9,76.3,0,0,0,135,�쓌,8.6,18
2011/4/8,4:00:00,113,���쓌,3.6,9.1,73.5,0,0,0,90,��,8.6,7
2011/4/8,5:00:00,203,��쐼,4.1,10.4,74.3,0,0,0,225,�쐼,9,28
2011/4/8,6:00:00,203,��쐼,4.7,10.8,72.3,0,0,0.04,203,��쐼,7.8,38
2011/4/8,7:00:00,203,��쐼,4.5,10.8,81.6,0,54,0.18,225,�쐼,7.8,27
2011/4/8,8:00:00,180,��,3.4,10.3,83.4,0,47,0.14,203,��쐼,6.4,5
2011/4/8,9:00:00,203,��쐼,3.9,8.5,88.2,0,60,0.17,180,��,7.4,37
2011/4/8,10:00:00,180,��,3.5,9.5,88.8,0.5,60,0.22,180,��,7.9,44
2011/4/8,11:00:00,203,��쐼,2.2,10.2,88.6,0,60,0.22,180,��,6,28
2011/4/8,12:00:00,225,�쐼,5,11.5,69.9,0.5,60,0.37,225,�쐼,8.9,58
2011/4/8,13:00:00,270,��,5.5,12.4,58.3,0,60,0.56,270,��,9.3,25
2011/4/8,14:00:00,248,���쐼,4.8,12.8,49.9,0,60,0.57,225,�쐼,9.2,10
2011/4/8,15:00:00,248,���쐼,5.8,13.5,43.7,0,60,0.63,225,�쐼,9.2,34
2011/4/8,16:00:00,315,�k��,4.5,11.4,48.3,0,47,0.31,225,�쐼,8.7,4
2011/4/8,17:00:00,338,�k�k��,3.1,10.4,47.6,0,59,0.26,293,���k��,9.2,12
2011/4/8,18:00:00,315,�k��,2.5,8.6,41.8,0,9,0.06,315,�k��,7.1,29
2011/4/8,19:00:00,338,�k�k��,1.2,3.7,58.7,0,0,0,270,��,3.3,35
2011/4/8,20:00:00,225,�쐼,0.5,2,71,0,0,0,315,�k��,2.4,49
2011/4/8,21:00:00,270,��,2,-0.5,82.1,0,0,0,270,��,3.1,57
2011/4/8,22:00:00,270,��,1.8,-2.5,89.2,0,0,0,270,��,3.1,58
2011/4/8,23:00:00,270,��,1.7,-0.2,74.2,0,0,0,270,��,3.1,29
2011/4/8,0:00:00,270,��,3.8,-3,80.9,0,0,0,270,��,5.1,45
2011/4/9,1:00:00,270,��,1.6,-3.7,81.3,0,0,0.01,270,��,4.9,0
2011/4/9,2:00:00,293,���k��,2.2,-5.3,81.2,0,0,0.01,293,���k��,3.1,53
2011/4/9,3:00:00,248,���쐼,1.1,-3.5,79.3,0,0,0.01,293,���k��,4.1,43
2011/4/9,4:00:00,270,��,1.9,-3.8,78.9,0,0,0.01,270,��,3.7,36
2011/4/9,5:00:00,270,��,2.5,-4.6,79.2,0,0,0.01,270,��,3.6,0
2011/4/9,6:00:00,270,��,1.3,-2.4,84.3,0,15,0.08,270,��,2.5,2
2011/4/9,7:00:00,225,�쐼,0.8,2.3,66.7,0,60,0.28,293,���k��,2.3,10
2011/4/9,8:00:00,90,��,1.9,5,54.5,0,60,0.49,113,���쓌,3.9,23
2011/4/9,9:00:00,113,���쓌,0.8,7.8,40.5,0,60,0.67,68,���k��,2.5,1
2011/4/9,10:00:00,90,��,1.9,8.5,36,0,60,0.57,135,�쓌,4.3,21
2011/4/9,11:00:00,90,��,2.7,7.3,40.4,0,60,0.62,113,���쓌,5.1,33
2011/4/9,12:00:00,90,��,4.6,5.1,60.8,0,60,0.6,90,��,6.3,17
2011/4/9,13:00:00,90,��,4,4.8,55.9,0,60,0.4,90,��,5.2,19
2011/4/9,14:00:00,68,���k��,2.9,3.6,71.9,0,24,0.12,68,���k��,6.1,39
2011/4/9,15:00:00,158,��쓌,2.6,3,81.9,0,17,0.11,68,���k��,4.7,4
2011/4/9,16:00:00,180,��,3.2,2.4,85.5,0,4,0.1,180,��,6.9,35
2011/4/9,17:00:00,180,��,2.1,0.9,95.1,0,0,0.04,180,��,5.7,4
2011/4/9,18:00:00,203,��쐼,1.6,0.5,97,0.5,0,0.02,203,��쐼,3.6,12
2011/4/9,19:00:00,248,���쐼,0.8,0.6,97.5,0,0,0,225,�쐼,2.3,1
2011/4/9,20:00:00,293,���k��,2.6,1,97.6,0,0,0,293,���k��,3.6,57
2011/4/9,21:00:00,293,���k��,2.4,0.6,96.9,0,0,0,293,���k��,4.4,39
2011/4/9,22:00:00,315,�k��,2.6,-0.2,97,0,0,0,315,�k��,4.1,33
2011/4/9,23:00:00,293,���k��,2.8,-0.9,96.3,0,0,0,293,���k��,4.1,48
2011/4/9,0:00:00,293,���k��,2.3,-3.2,97.1,0,0,0.01,293,���k��,3.4,53
2011/4/10,1:00:00,293,���k��,4,-1.5,96.8,0,0,0.01,293,���k��,5.7,51
2011/4/10,2:00:00,315,�k��,2.1,-1.9,96.1,0,0,0.01,293,���k��,5.3,2
2011/4/10,3:00:00,293,���k��,3.5,-1.2,95.6,0,0,0.01,293,���k��,5,52
2011/4/10,4:00:00,293,���k��,2.6,-1.4,94.6,0,0,0.01,315,�k��,4.4,13
2011/4/10,5:00:00,270,��,2.3,-5.6,95.5,0,0,0.01,270,��,3.7,42
2011/4/10,6:00:00,270,��,2,-2.5,97.1,0,12,0.07,270,��,2.9,48
2011/4/10,7:00:00,293,���k��,0.9,0.9,92.1,0,60,0.28,270,��,2,28
2011/4/10,8:00:00,203,��쐼,0.8,4.6,80.7,0,60,0.5,270,��,1.8,59
2011/4/10,9:00:00,113,���쓌,3.1,5.6,77.8,0,60,0.67,113,���쓌,4.3,36
2011/4/10,10:00:00,113,���쓌,3.4,4.6,71.8,0,60,0.81,113,���쓌,4.9,53
2011/4/10,11:00:00,135,�쓌,3.8,4.4,74.4,0,60,0.91,113,���쓌,5.8,5
2011/4/10,12:00:00,158,��쓌,4.4,5,72.2,0,60,0.94,158,��쓌,7.2,54
2011/4/10,13:00:00,113,���쓌,4.3,6.1,72.2,0,60,0.9,158,��쓌,7.8,3
2011/4/10,14:00:00,90,��,4.1,5.7,70.7,0,60,0.79,135,�쓌,7.3,7
2011/4/10,15:00:00,68,���k��,4.4,5.4,70.8,0,60,0.64,68,���k��,7.2,12
2011/4/10,16:00:00,45,�k��,4.6,4,74.1,0,60,0.44,68,���k��,6.7,1
2011/4/10,17:00:00,23,�k�k��,4.4,2.6,85.2,0,53,0.21,45,�k��,7,26
2011/4/10,18:00:00,23,�k�k��,4.1,1.2,94.1,0,0,0.04,360,�k,6.1,50
2011/4/10,19:00:00,23,�k�k��,4.4,0.8,96.1,0,0,0,360,�k,6.7,3
2011/4/10,20:00:00,23,�k�k��,4.3,0.8,96.5,0,0,0,360,�k,6.7,14
2011/4/10,21:00:00,45,�k��,2.8,1.3,96.1,0,0,0,23,�k�k��,5.6,1
2011/4/10,22:00:00,23,�k�k��,2.4,1.1,95.8,0,0,0,23,�k�k��,5.3,13
2011/4/10,23:00:00,23,�k�k��,1.7,0.8,96.5,0,0,0,45,�k��,4,9
2011/4/10,0:00:00,68,���k��,1.3,0.4,96.7,0,0,0,45,�k��,2.2,10
2011/4/11,1:00:00,68,���k��,1.5,0.3,97.7,0,0,0,68,���k��,2.9,40
2011/4/11,2:00:00,23,�k�k��,1.6,0.1,98.3,0,0,0,45,�k��,3.9,45
2011/4/11,3:00:00,270,��,1.4,0.2,98.7,0,0,0,293,���k��,3.9,35
2011/4/11,4:00:00,360,�k,1.4,0.1,98.5,0,0,0,293,���k��,3.6,45
2011/4/11,5:00:00,315,�k��,2.7,0.7,96.9,0,0,0.01,338,�k�k��,5.2,33
2011/4/11,6:00:00,270,��,1.5,0.9,95.2,0,0,0.03,315,�k��,4.1,6
2011/4/11,7:00:00,293,���k��,3.7,2.3,88.6,0,33,0.14,293,���k��,5.2,55
2011/4/11,8:00:00,315,�k��,1.3,4.8,79,0,60,0.28,293,���k��,4.6,22
2011/4/11,9:00:00,315,�k��,2.3,7.9,60.7,0,60,0.4,315,�k��,5.1,42
2011/4/11,10:00:00,315,�k��,2.9,10,42.8,0,60,0.51,338,�k�k��,5.4,59
2011/4/11,11:00:00,45,�k��,1.6,11.6,37.7,0,60,0.72,315,�k��,5.6,0
2011/4/11,12:00:00,113,���쓌,3.8,11.2,36.8,0,60,0.79,113,���쓌,6.3,53
2011/4/11,13:00:00,113,���쓌,3.2,11.1,35.1,0,60,0.78,90,��,6.8,6
2011/4/11,14:00:00,135,�쓌,2.7,9.6,43.6,0,60,0.73,23,�k�k��,7.1,42
2011/4/11,15:00:00,135,�쓌,3.9,8.5,54.4,0,60,0.51,135,�쓌,6.8,22
2011/4/11,16:00:00,180,��,3.2,8.3,49.3,0,60,0.38,158,��쓌,7.2,24
2011/4/11,17:00:00,180,��,2.8,7.2,53.5,0,49,0.17,180,��,5,8
2011/4/11,18:00:00,270,��,1,4.3,64.8,0,0,0.04,203,��쐼,2.5,0
2011/4/11,19:00:00,270,��,1.1,2,73.7,0,0,0,270,��,1.8,10
2011/4/11,20:00:00,23,�k�k��,3.4,3.2,68.5,0,0,0,45,�k��,5.5,46
2011/4/11,21:00:00,45,�k��,3.3,1.9,86.7,0,0,0,23,�k�k��,6,16
2011/4/11,22:00:00,23,�k�k��,2.4,1.8,91.3,0,0,0,23,�k�k��,4.7,6
2011/4/11,23:00:00,23,�k�k��,0.9,-1.2,94,0,0,0,23,�k�k��,3.4,15
2011/4/11,0:00:00,293,���k��,1.5,-2.9,96.8,0,0,0,270,��,2,48
2011/4/12,1:00:00,270,��,0.9,-1.1,97.7,0,0,0,270,��,2.4,18
2011/4/12,2:00:00,293,���k��,1.6,0.2,96.9,0,0,0.01,270,��,2.4,25
2011/4/12,3:00:00,270,��,1,-1.2,96.7,0,0,0.01,315,�k��,1.5,4
2011/4/12,4:00:00,270,��,2,-3.2,96.5,0,0,0.01,270,��,2.4,44
2011/4/12,5:00:00,270,��,1.6,-2.6,97,0,0,0.01,270,��,2.6,59
2011/4/12,6:00:00,270,��,1.7,-1.2,97.5,0,0,0.04,293,���k��,2.5,47
2011/4/12,7:00:00,45,�k��,1.1,3.6,87.6,0,48,0.23,270,��,3.7,16
2011/4/12,8:00:00,68,���k��,0.8,5,78.9,0,60,0.36,68,���k��,3.3,2
2011/4/12,9:00:00,90,��,5,5.7,65.4,0,60,0.58,90,��,6.4,56
2011/4/12,10:00:00,90,��,5.1,5.8,63.8,0,60,0.79,90,��,6.9,45
2011/4/12,11:00:00,113,���쓌,3.8,5.5,60.8,0,60,0.92,113,���쓌,7.1,1
2011/4/12,12:00:00,113,���쓌,3.2,4.9,62.6,0,60,0.79,135,�쓌,6.4,17
2011/4/12,13:00:00,113,���쓌,3.4,6.1,63.1,0,60,0.8,113,���쓌,6.4,35
2011/4/12,14:00:00,135,�쓌,3.9,5.6,60,0,60,0.79,113,���쓌,5.9,26
2011/4/12,15:00:00,113,���쓌,3.7,4.7,63,0,60,0.63,90,��,6.3,8
2011/4/12,16:00:00,90,��,2.2,3.9,75,0,60,0.37,113,���쓌,5.5,13
2011/4/12,17:00:00,113,���쓌,1,4.6,69.5,0,55,0.17,90,��,3,0
2011/4/12,18:00:00,135,�쓌,0.7,-1,83.1,0,8,0.05,360,�k,2.3,18
2011/4/12,19:00:00,248,���쐼,1.8,-1.7,93,0,0,0,270,��,3.1,52
2011/4/12,20:00:00,270,��,1.6,-2.8,93.2,0,0,0,248,���쐼,2.5,42
2011/4/12,21:00:00,270,��,1.9,-3.8,93.7,0,0,0,270,��,3.5,46
2011/4/12,22:00:00,270,��,2.4,-3.2,94.3,0,0,0,270,��,4.1,46
2011/4/12,23:00:00,360,�k,1.9,-1.9,90,0,0,0.01,45,�k��,3.5,30
2011/4/12,0:00:00,23,�k�k��,1.7,-1,94,0,0,0.01,360,�k,2.7,8
2011/4/13,1:00:00,360,�k,0.9,-2.8,94.9,0,0,0.01,360,�k,2.2,0
2011/4/13,2:00:00,23,�k�k��,1.2,-1.2,97.5,0,0,0.01,23,�k�k��,1.9,55
2011/4/13,3:00:00,315,�k��,1.5,-1.8,96.1,0,0,0.01,23,�k�k��,3.1,16
2011/4/13,4:00:00,293,���k��,1.8,-1.2,96.6,0,0,0.01,293,���k��,3.1,50
2011/4/13,5:00:00,248,���쐼,1.9,-2.8,97,0,0,0.01,248,���쐼,2.6,44
2011/4/13,6:00:00,315,�k��,0.3,-0.8,97,0,19,0.09,248,���쐼,2.6,2
2011/4/13,7:00:00,45,�k��,2.4,3.5,88.5,0,60,0.28,45,�k��,3.3,59
2011/4/13,8:00:00,180,��,2.8,5.6,79.8,0,60,0.24,180,��,7.8,46
2011/4/13,9:00:00,203,��쐼,4.8,4.8,81.1,0,38,0.15,180,��,9.8,43
2011/4/13,10:00:00,203,��쐼,4.2,4.6,81.5,0,38,0.16,180,��,9.2,17
2011/4/13,11:00:00,203,��쐼,2.9,3.7,93.5,1.5,0,0.07,203,��쐼,7.5,2
2011/4/13,12:00:00,180,��,2.4,3.9,93.5,1.5,25,0.13,203,��쐼,4.8,33
2011/4/13,13:00:00,68,���k��,1.4,5.6,92.7,0.5,60,0.33,203,��쐼,3.2,4
2011/4/13,14:00:00,113,���쓌,1.9,4.3,92,0,60,0.33,90,��,3.4,33
2011/4/13,15:00:00,113,���쓌,0.7,6.6,91.2,0.5,60,0.25,90,��,2.6,3
2011/4/13,16:00:00,315,�k��,2.1,7.6,82.6,0,60,0.31,270,��,4.5,2
2011/4/13,17:00:00,338,�k�k��,1.7,6.3,78.6,0,56,0.24,315,�k��,4.7,7
2011/4/13,18:00:00,180,��,1.5,2.4,92.7,0,6,0.06,158,��쓌,4.3,32
2011/4/13,19:00:00,90,��,0.7,0.3,96.7,0,0,0,203,��쐼,1.8,42
2011/4/13,20:00:00,225,�쐼,2,0.9,94.4,0,0,0,203,��쐼,4.5,41
2011/4/13,21:00:00,270,��,1,0.7,97.1,0,0,0,180,��,2.8,23
2011/4/13,22:00:00,293,���k��,1.7,-0.4,97.9,0,0,0,293,���k��,3.3,40
2011/4/13,23:00:00,315,�k��,0.6,-1.8,97.5,0,0,0,270,��,3,2
2011/4/13,0:00:00,248,���쐼,1.5,-3.4,98.2,0,0,0,293,���k��,3.3,21
2011/4/14,1:00:00,270,��,2.4,-2.6,98.6,0,0,0.01,203,��쐼,3.4,24
2011/4/14,2:00:00,293,���k��,1.6,-4.3,97.3,0,0,0.01,248,���쐼,3,40
2011/4/14,3:00:00,293,���k��,1.1,-3.6,97,0,0,0.01,270,��,3.7,33
2011/4/14,4:00:00,293,���k��,1.6,-3.7,96.4,0,0,0.01,270,��,3.2,58
2011/4/14,5:00:00,270,��,1.9,-3.3,94.8,0,0,0.01,270,��,3.9,25
2011/4/14,6:00:00,293,���k��,1.1,-2.3,96.1,0,9,0.07,270,��,3.1,13
2011/4/14,7:00:00,225,�쐼,0.5,1.9,87.6,0,60,0.24,270,��,3.4,30
2011/4/14,8:00:00,90,��,1.4,6.2,81.5,0,60,0.43,113,���쓌,2.4,57
2011/4/14,9:00:00,135,�쓌,2.5,7.4,67.6,0,60,0.56,113,���쓌,3.8,57
2011/4/14,10:00:00,90,��,1.8,10.7,58.5,0,60,0.47,135,�쓌,3.8,0
2011/4/14,11:00:00,113,���쓌,2.5,11,40.8,0,60,0.69,113,���쓌,3.7,57
2011/4/14,12:00:00,158,��쓌,4.3,12.3,41.1,0,60,0.89,180,��,5.6,42
2011/4/14,13:00:00,158,��쓌,3,13.9,33.6,0,60,0.87,158,��쓌,6.3,25
2011/4/14,14:00:00,135,�É�,0,13.2,39.6,0,60,0.79,158,��쓌,3.8,1
2011/4/14,15:00:00,135,�쓌,3,12.3,37.6,0,60,0.64,158,��쓌,5.7,21
2011/4/14,16:00:00,158,��쓌,2.4,13.2,34.2,0,60,0.47,180,��,5,10
2011/4/14,17:00:00,158,��쓌,2.8,12,38.2,0,60,0.26,180,��,5.6,32
2011/4/14,18:00:00,203,��쐼,0.8,8.5,48.8,0,11,0.07,203,��쐼,3.9,18
2011/4/14,19:00:00,360,�k,1,3.5,77.4,0,0,0,23,�k�k��,2.5,44
2011/4/14,20:00:00,270,��,1.7,1.9,85,0,0,0,270,��,2.3,0
2011/4/14,21:00:00,293,���k��,2.1,2.1,80,0,0,0,45,�k��,5.4,58
2011/4/14,22:00:00,270,��,1.1,-0.5,88,0,0,0,45,�k��,3.4,14
2011/4/14,23:00:00,248,���쐼,1.4,-0.2,90.4,0,0,0,270,��,2.6,49
2011/4/14,0:00:00,270,��,1.7,-2.7,91.5,0,0,0,270,��,2.2,51
2011/4/15,1:00:00,270,��,0.7,-2.5,92.9,0,0,0,248,���쐼,2.2,9
2011/4/15,2:00:00,270,��,1.7,-2.5,93.3,0,0,0.01,270,��,3,12
2011/4/15,3:00:00,270,��,1.6,-2.3,93.5,0,0,0.01,270,��,2.8,31
2011/4/15,4:00:00,293,���k��,0.9,-1.7,93.3,0,0,0.01,270,��,2.6,10
2011/4/15,5:00:00,293,���k��,1.4,-1.3,90.7,0,0,0.01,270,��,2.2,57
2011/4/15,6:00:00,293,���k��,1.3,1.8,83.8,0,0,0.03,270,��,2.6,5
2011/4/15,7:00:00,338,�k�k��,2.1,5.4,64.9,0,39,0.2,23,�k�k��,5.2,59
2011/4/15,8:00:00,68,���k��,4.5,5.8,58.4,0,60,0.37,68,���k��,6.3,56
2011/4/15,9:00:00,68,���k��,4.6,5.6,65,0,60,0.42,68,���k��,7,21
2011/4/15,10:00:00,90,��,4.9,5.9,68.6,0,60,0.6,68,���k��,6.9,28
2011/4/15,11:00:00,90,��,5.4,4.5,81.4,0,60,0.72,68,���k��,7.9,46
2011/4/15,12:00:00,68,���k��,3.2,6.3,77,0,60,0.7,90,��,6.9,9
2011/4/15,13:00:00,90,��,3.2,4.3,84.1,0,60,0.74,113,���쓌,5.4,19
2011/4/15,14:00:00,90,��,3.5,3.6,91.8,0,60,0.3,90,��,5.4,17
2011/4/15,15:00:00,68,���k��,2.8,4.1,88.1,0,60,0.32,68,���k��,5.4,25
2011/4/15,16:00:00,90,��,2.1,3.2,92.3,0,60,0.28,90,��,4,2
2011/4/15,17:00:00,113,���쓌,2.2,1.9,95,0,41,0.13,113,���쓌,3.4,59
2011/4/15,18:00:00,45,�k��,1,1.6,97.1,0,0,0.04,113,���쓌,3.8,0
2011/4/15,19:00:00,360,�k,1.6,1.6,97.8,0,0,0,23,�k�k��,2.1,56
2011/4/15,20:00:00,68,���k��,2.4,2.2,98.2,0,0,0,68,���k��,3.4,40
2011/4/15,21:00:00,90,��,1.7,2.3,98.4,0,0,0,45,�k��,2.8,13
2011/4/15,22:00:00,360,�É�,0,2.2,98.6,0,0,0,90,��,2.6,9
2011/4/15,23:00:00,23,�k�k��,2,2.5,98.7,0,0,0,360,�k,2.8,57
2011/4/15,0:00:00,360,�k,1.7,2.9,98.7,0,0,0,360,�k,3.4,4
2011/4/16,1:00:00,360,�k,2.1,3,98.8,0,0,0,45,�k��,3,9
2011/4/16,2:00:00,23,�k�k��,2,3.2,98.8,0,0,0,23,�k�k��,3.8,25
2011/4/16,3:00:00,315,�k��,1,3.6,98.8,0,0,0,338,�k�k��,3.3,44
2011/4/16,4:00:00,68,���k��,3.4,4,98.7,0,0,0,68,���k��,6.1,59
2011/4/16,5:00:00,23,�k�k��,2.2,4,98.8,0,0,0,45,�k��,7.4,4
2011/4/16,6:00:00,45,�k��,1.6,4.2,98.8,0,0,0.02,315,�k��,4.3,8
2011/4/16,7:00:00,45,�k��,3.8,4.3,98.8,0,0,0.06,45,�k��,5.7,45
2011/4/16,8:00:00,45,�k��,2,4.5,98.8,0,27,0.12,68,���k��,4.7,10
2011/4/16,9:00:00,23,�k�k��,1.2,5.6,98.7,0,60,0.2,45,�k��,3.3,6
2011/4/16,10:00:00,68,���k��,4.1,5.5,98.8,0,60,0.34,68,���k��,5.6,58
2011/4/16,11:00:00,90,��,4.5,3.9,98.9,0,60,0.27,68,���k��,6.2,34
2011/4/16,12:00:00,45,�k��,2.5,4.1,98.7,0,60,0.26,90,��,5.6,18
2011/4/16,13:00:00,45,�k��,3.2,6.8,97.1,0,60,0.35,45,�k��,4.6,59
2011/4/16,14:00:00,68,���k��,3.2,5,93.4,0,35,0.14,45,�k��,4.8,12